• Join FlightAware (Why Join?)
  • Login
  • US Flag GB Flag 
01:14 EDT


 

Airport Tracker/Info


-or-


 

Live Flight TrackerFlight Track Log ✈ SWA59 ✈ 22-Apr-2013 ✈ KPHL - KSTL

Flight Track Log - Related Links

Times and Time Zones

All times are in EDT time to prevent confusion due to time zone crossing. See the SWA59 flight status page for this flight to view local times or setup timezone preferences in your user account.

Time Position Orientation Groundspeed Altitude Reporting Facility
EDT Latitude Longitude Course Direction KTS MPH feet Rate Location/Type
17:17 39.8744 -75.2261 67° East 128 147 900  Level FAA TRACON SMA TRACON (SMA)
17:17 39.8803 -75.2083 67° East 138 159 1,600 1,620 Climbing FAA TRACON SMA TRACON (SMA)
17:17 39.8850 -75.1917 70° East 156 180 2,000 2,040 Climbing FAA TRACON SMA TRACON (SMA)
17:18 39.8933 -75.1672 66° East 189 217 3,000 3,000 Climbing FAA TRACON SMA TRACON (SMA)
17:18 39.9003 -75.1464 67° East 199 229 4,100 3,300 Climbing FAA TRACON SMA TRACON (SMA)
17:18 39.9069 -75.1267 66° East 195 224 5,200 2,520 Climbing FAA TRACON SMA TRACON (SMA)
17:19 39.9264 -75.1131 28° Northeast 242 278 5,700 1,200 Climbing FAA TRACON SMA TRACON (SMA)
17:19 39.9464 -75.1203 345° North 250 288 6,000 1,920 Climbing FAA TRACON SMA TRACON (SMA)
17:19 39.9611 -75.1456 307° West 285 328 7,000 3,600 Climbing FAA TRACON SMA TRACON (SMA)
17:20 39.9606 -75.1831 269° West 268 308 8,400 3,600 Climbing FAA TRACON SMA TRACON (SMA)
17:20 39.9561 -75.2128 259° West 273 314 9,400 2,400 Climbing FAA TRACON SMA TRACON (SMA)
17:20 39.9519 -75.2433 260° West 284 327 10,000 1,020 Climbing FAA TRACON SMA TRACON (SMA)
17:21 39.9492 -75.2831 265° West 293 337 10,100 120 Climbing FAA TRACON SMA TRACON (SMA)
17:21 39.9464 -75.3169 264° West 318 366 10,100  Level FAA TRACON SMA TRACON (SMA)
17:21 39.9433 -75.3644 265° West 331 381 10,100  Level FAA TRACON SMA TRACON (SMA)
17:22 39.9406 -75.4003 264° West 325 374 10,100  Level FAA TRACON SMA TRACON (SMA)
17:22 39.9378 -75.4347 264° West 324 373 10,100 120 Level FAA TRACON SMA TRACON (SMA)
17:22 39.9339 -75.4808 264° West 325 374 10,200 840 Climbing FAA TRACON SMA TRACON (SMA)
17:23 39.9325 -75.5122 267° West 327 376 10,700 2,280 Climbing FAA TRACON SMA TRACON (SMA)
17:23 39.9278 -75.5539 262° West 330 380 11,700 2,100 Climbing FAA TRACON SMA TRACON (SMA)
17:23 39.9239 -75.6006 264° West 335 386 12,100 720 Climbing FAA TRACON SMA TRACON (SMA)
17:24 39.9208 -75.6383 264° West 339 390 12,200 1,320 Climbing FAA TRACON SMA TRACON (SMA)
17:24 39.9178 -75.6747 264° West 339 390 13,000 2,040 Climbing FAA TRACON SMA TRACON (SMA)
17:24 39.9167 -75.6950 266° West 339 390 13,600 600 Climbing FAA TRACON SMA TRACON (SMA)
17:25 39.9167 -75.6950 180° South 339 390 13,600 3,180 Level FAA TRACON SMA TRACON (SMA)
17:27 39.9142 -76.0486 270° West 365 420 21,500 3,480 Climbing New York Center
17:28 39.9100 -76.1836 268° West 371 427 23,500 1,680 Climbing New York Center
17:29 39.9125 -76.3083 272° West 376 433 25,000 840 Climbing New York Center
17:30 39.9164 -76.4467 272° West 383 441 25,300 1,260 Climbing New York Center
17:31 39.9222 -76.5853 273° West 389 448 27,600 1,980 Climbing New York Center
17:32 39.9297 -76.7267 274° West 389 448 29,400 2,040 Climbing New York Center
17:33 39.9331 -76.8678 272° West 389 448 31,700 1,980 Climbing New York Center
17:34 39.9383 -77.0036 273° West 389 448 33,400 1,620 Climbing New York Center
17:35 39.9456 -77.1450 274° West 389 448 34,900 1,560 Climbing New York Center
17:36 39.9503 -77.2864 273° West 394 453 36,600 1,500 Climbing New York Center
17:38 39.9608 -77.4978 274° West 383 441 38,800 1,020 Climbing Cleveland Center
17:39 39.9644 -77.6358 272° West 383 441 39,300 360 Climbing Cleveland Center
17:40 39.9681 -77.7794 272° West 383 441 39,600 300 Climbing Cleveland Center
17:41 39.9717 -77.9308 272° West 397 457 40,000 180 Climbing Cleveland Center
17:42 39.9792 -78.0797 274° West 415 478 40,000  Level Cleveland Center
17:43 39.9822 -78.2258 272° West 415 478 40,000  Level Cleveland Center
17:44 39.9811 -78.3775 270° West 415 478 40,000  Level Cleveland Center
17:45 39.9839 -78.5267 271° West 415 478 40,000  Level Cleveland Center
17:46 39.9886 -78.6728 272° West 420 483 40,000  Level Cleveland Center
17:47 39.9911 -78.8217 271° West 420 483 40,000  Level Cleveland Center
17:48 39.9975 -78.9869 273° West 420 483 40,000  Level Cleveland Center
17:49 39.9994 -79.1306 271° West 415 478 40,000  Level Cleveland Center
17:50 40.0033 -79.2822 272° West 415 478 40,000  Level Cleveland Center
17:51 40.0050 -79.4286 271° West 415 478 40,000  Level Cleveland Center
17:52 40.0086 -79.5775 272° West 415 478 40,000  Level Cleveland Center
17:53 40.0097 -79.7239 271° West 415 478 40,000  Level Cleveland Center
17:54 40.0128 -79.8728 272° West 415 478 40,000  Level Cleveland Center
17:55 40.0136 -80.0219 270° West 415 478 40,000  Level Cleveland Center
17:56 40.0164 -80.1683 271° West 415 478 40,000  Level Cleveland Center
17:57 40.0169 -80.3200 270° West 415 478 40,000  Level Cleveland Center
17:58 40.0172 -80.4664 270° West 415 478 40,000  Level Cleveland Center
17:59 40.0172 -80.6156 270° West 415 478 40,000  Level Cleveland Center
18:00 40.0192 -80.7647 271° West 415 478 40,000  Level Cleveland Center
18:01 40.0189 -80.8947 270° West 420 483 40,000  Level Cleveland Center
18:02 40.0117 -81.1594 268° West 409 471 40,000  Level Indianapolis Center
18:03 40.0100 -81.3067 269° West 404 465 40,000  Level Indianapolis Center
18:04 40.0072 -81.4536 269° West 403 464 40,000  Level Indianapolis Center
18:05 40.0033 -81.6042 268° West 409 471 40,000  Level Indianapolis Center
18:06 40.0003 -81.7508 268° West 403 464 40,000  Level Indianapolis Center
18:07 39.9972 -81.9094 269° West 404 465 40,000  Level Indianapolis Center
18:08 39.9933 -82.0569 268° West 404 465 40,000  Level Indianapolis Center
18:09 39.9894 -82.2047 268° West 405 466 40,000  Level Indianapolis Center
18:10 39.9861 -82.3550 268° West 410 472 40,000  Level Indianapolis Center
18:11 39.9831 -82.5064 269° West 414 476 40,000  Level Indianapolis Center
18:12 39.9775 -82.6586 267° West 418 481 40,000  Level Indianapolis Center
18:14 39.9733 -82.8100 268° West 416 479 40,000  Level Indianapolis Center
18:15 39.9683 -82.9625 268° West 418 481 40,000  Level Indianapolis Center
18:16 39.9633 -83.1386 268° West 416 479 40,000  Level Indianapolis Center
18:17 39.9608 -83.2875 269° West 410 472 40,000  Level Indianapolis Center
18:18 39.9547 -83.4367 267° West 414 476 40,000  Level Indianapolis Center
18:19 39.9489 -83.5836 267° West 415 478 40,000  Level Indianapolis Center
18:20 39.9425 -83.7567 267° West 413 475 40,000  Level Indianapolis Center
18:21 39.9367 -83.9064 267° West 413 475 40,000  Level Indianapolis Center
18:22 39.9308 -84.0572 267° West 414 476 40,000  Level Indianapolis Center
18:23 39.9250 -84.2069 267° West 411 473 40,000  Level Indianapolis Center
18:24 39.9189 -84.3575 267° West 413 475 40,000  Level Indianapolis Center
18:25 39.9122 -84.5100 267° West 417 480 40,000  Level Indianapolis Center
18:26 39.9039 -84.6611 266° West 416 479 40,000  Level Indianapolis Center
18:27 39.8964 -84.8361 267° West 413 475 40,000  Level Indianapolis Center
18:28 39.8897 -84.9878 267° West 415 478 40,000  Level Indianapolis Center
18:29 39.8828 -85.1383 267° West 414 476 40,000  Level Indianapolis Center
18:30 39.8742 -85.2894 266° West 414 476 40,000  Level Indianapolis Center
18:31 39.8653 -85.4406 266° West 414 476 40,000  Level Indianapolis Center
18:32 39.8569 -85.5919 266° West 417 480 40,000  Level Indianapolis Center
18:33 39.8453 -85.7439 264° West 417 480 40,000  Level Indianapolis Center
18:34 39.8339 -85.8939 264° West 416 479 40,000  Level Indianapolis Center
18:35 39.8233 -86.0547 265° West 415 478 40,000 -300 Level Indianapolis Center
18:36 39.8133 -86.2044 265° West 416 479 39,500 -720 Descending Indianapolis Center
18:37 39.8028 -86.3547 265° West 416 479 38,500 -1,020 Descending Indianapolis Center
18:38 39.7881 -86.5283 264° West 406 467 37,400 -1,080 Descending Indianapolis Center
18:39 39.7797 -86.6731 266° West 402 463 36,400 -960 Descending Indianapolis Center
18:40 39.7725 -86.8219 266° West 409 471 35,500 -960 Descending Indianapolis Center
18:41 39.7597 -86.9725 264° West 417 480 34,500 -720 Descending Indianapolis Center
18:42 39.7150 -87.1125 247° West 420 483 34,000 -720 Descending Indianapolis Center
18:43 39.6686 -87.2481 246° West 414 476 33,000 -1,080 Descending Indianapolis Center
18:45 39.6136 -87.4089 246° West 407 468 31,800 -1,080 Descending Indianapolis Center
18:46 39.5664 -87.5450 246° West 413 475 30,800 -960 Descending Indianapolis Center
18:47 39.5200 -87.6806 246° West 413 475 29,900 -960 Descending Indianapolis Center
18:48 39.4717 -87.8178 246° West 416 479 28,900 -960 Descending Indianapolis Center
18:49 39.4250 -87.9511 246° West 411 473 28,000 -480 Descending Kansas City Center
18:50 39.3811 -88.0825 247° West 405 466 28,000  Level Kansas City Center
18:51 39.3461 -88.2256 252° West 412 474 28,000  Level Kansas City Center
18:52 39.3083 -88.3686 251° West 418 481 28,000  Level Kansas City Center
18:53 39.2694 -88.5108 251° West 419 482 28,000 -660 Level Kansas City Center
18:54 39.2297 -88.6614 251° West 412 474 26,700 -1,200 Descending Kansas City Center
18:55 39.1933 -88.7936 250° West 397 457 25,700 -960 Descending Kansas City Center
18:56 39.1572 -88.9256 251° West 393 452 24,800 -1,020 Descending Kansas City Center
18:57 39.1164 -89.0781 251° West 379 436 23,600 -1,080 Descending Kansas City Center
18:58 39.0825 -89.2033 251° West 372 428 22,600 -1,020 Descending Kansas City Center
18:58 39.0764 -89.1822 110° East 371 427 22,300 -1,200 Descending FAA TRACON SMA TRACON (SMA)
18:58 39.0656 -89.2314 254° West 372 428 21,900 -1,080 Descending FAA TRACON SMA TRACON (SMA)
18:59 39.0558 -89.2694 252° West 368 423 21,600 -1,620 Descending FAA TRACON SMA TRACON (SMA)
18:59 39.0364 -89.3556 254° West 360 414 20,300 -1,980 Descending FAA TRACON SMA TRACON (SMA)
19:00 39.0244 -89.3914 247° West 354 407 19,700 -1,860 Descending FAA TRACON SMA TRACON (SMA)
19:00 39.0172 -89.4286 256° West 351 404 19,100 -2,100 Descending FAA TRACON SMA TRACON (SMA)
19:00 39.0083 -89.4744 256° West 344 396 18,300 -2,220 Descending FAA TRACON SMA TRACON (SMA)
19:01 38.9986 -89.5094 250° West 340 391 17,600 -2,100 Descending FAA TRACON SMA TRACON (SMA)
19:01 38.9908 -89.5453 254° West 336 387 16,900 -2,520 Descending FAA TRACON SMA TRACON (SMA)
19:01 38.9769 -89.5878 247° West 335 386 16,000 -2,520 Descending FAA TRACON SMA TRACON (SMA)
19:02 38.9664 -89.6214 248° West 333 383 15,300 -1,500 Descending FAA TRACON SMA TRACON (SMA)
19:02 38.9561 -89.6550 249° West 330 380 15,000 -600 Descending FAA TRACON SMA TRACON (SMA)
19:02 38.9425 -89.6958 247° West 323 372 14,900 -780 Descending FAA TRACON SMA TRACON (SMA)
19:03 38.9319 -89.7278 247° West 319 367 14,500 -1,440 Descending FAA TRACON SMA TRACON (SMA)
19:03 38.9222 -89.7597 249° West 315 362 14,000 -1,800 Descending FAA TRACON SMA TRACON (SMA)
19:03 38.9100 -89.7992 248° West 309 356 13,300 -1,920 Descending FAA TRACON SMA TRACON (SMA)
19:04 38.8992 -89.8300 246° West 307 353 12,700 -1,800 Descending FAA TRACON SMA TRACON (SMA)
19:04 38.8892 -89.8608 247° West 305 351 12,100 -1,980 Descending FAA TRACON SMA TRACON (SMA)
19:04 38.8772 -89.8989 248° West 301 346 11,400 -2,040 Descending FAA TRACON SMA TRACON (SMA)
19:05 38.8669 -89.9292 246° West 301 346 10,800 -1,560 Descending FAA TRACON SMA TRACON (SMA)
19:05 38.8572 -89.9589 247° West 297 342 10,400 -1,080 Descending FAA TRACON SMA TRACON (SMA)
19:05 38.8464 -89.9953 249° West 285 328 10,100 -600 Descending FAA TRACON SMA TRACON (SMA)
19:06 38.8375 -90.0219 247° West 269 310 10,000 -600 Descending FAA TRACON SMA TRACON (SMA)
19:06 38.8294 -90.0478 248° West 258 297 9,700 -1,080 Descending FAA TRACON SMA TRACON (SMA)
19:06 38.8192 -90.0792 247° West 250 288 9,300 -1,260 Descending FAA TRACON SMA TRACON (SMA)
19:07 38.8108 -90.1044 247° West 248 285 8,900 -1,260 Descending FAA TRACON SMA TRACON (SMA)
19:07 38.8031 -90.1292 248° West 245 282 8,500 -1,380 Descending FAA TRACON SMA TRACON (SMA)
19:07 38.7967 -90.1619 256° West 249 287 8,000 -1,380 Descending FAA TRACON SMA TRACON (SMA)
19:08 38.8033 -90.1878 288° West 256 295 7,600 -900 Descending FAA TRACON SMA TRACON (SMA)
19:08 38.8150 -90.2125 301° West 261 300 7,400 -600 Descending FAA TRACON SMA TRACON (SMA)
19:08 38.8289 -90.2425 301° West 256 295 7,200 -780 Descending FAA TRACON SMA TRACON (SMA)
19:09 38.8397 -90.2661 301° West 252 290 6,900 -1,080 Descending FAA TRACON SMA TRACON (SMA)
19:09 38.8503 -90.2894 300° West 247 284 6,500 -1,260 Descending FAA TRACON SMA TRACON (SMA)
19:09 38.8631 -90.3183 300° West 244 281 6,100 -1,200 Descending FAA TRACON SMA TRACON (SMA)
19:10 38.8731 -90.3411 299° West 240 276 5,700 -1,500 Descending FAA TRACON SMA TRACON (SMA)
19:10 38.8861 -90.3694 301° West 238 274 5,100 -1,500 Descending FAA TRACON SMA TRACON (SMA)
19:10 38.8956 -90.3931 297° West 241 277 4,700 -1,380 Descending FAA TRACON SMA TRACON (SMA)
19:11 38.8961 -90.4181 272° West 238 274 4,200 -1,560 Descending FAA TRACON SMA TRACON (SMA)
19:11 38.8883 -90.4389 244° Southwest 226 260 3,700 -1,560 Descending FAA TRACON SMA TRACON (SMA)
19:11 38.8689 -90.4517 207° Southwest 212 244 3,200 -1,080 Descending FAA TRACON SMA TRACON (SMA)
19:12 38.8525 -90.4567 193° South 201 231 3,000 -480 Descending FAA TRACON SMA TRACON (SMA)
19:12 38.8336 -90.4625 194° South 184 212 2,900 -180 Descending FAA TRACON SMA TRACON (SMA)
19:12 38.8200 -90.4639 185° South 172 198 2,900 -180 Level FAA TRACON SMA TRACON (SMA)
19:13 38.8114 -90.4511 131° Southeast 172 198 2,800 -480 Descending FAA TRACON SMA TRACON (SMA)
19:13 38.8050 -90.4367 120° Southeast 158 182 2,600 -900 Descending FAA TRACON SMA TRACON (SMA)
19:13 38.7961 -90.4189 123° Southeast 152 175 2,200 -900 Descending FAA TRACON SMA TRACON (SMA)
19:14 38.7894 -90.4058 123° Southeast 147 169 2,000 -660 Descending FAA TRACON SMA TRACON (SMA)
19:14 38.7836 -90.3936 121° Southeast 135 155 1,800 -780 Descending FAA TRACON SMA TRACON (SMA)
19:14 38.7764 -90.3789 122° Southeast 125 144 1,500 -780 Descending FAA TRACON SMA TRACON (SMA)
19:15 38.7700 -90.3667 124° Southeast 130 150 1,300 -600 Descending FAA TRACON SMA TRACON (SMA)
19:15 38.7628 -90.3517 122° Southeast 131 151 1,100 -600 Descending FAA TRACON SMA TRACON (SMA)
19:15 38.7567 -90.3397 123° Southeast 128 147 900 -600 Descending FAA TRACON SMA TRACON (SMA)
19:16 38.7508 -90.3281 123° Southeast 128 147 700 -480 Descending FAA TRACON SMA TRACON (SMA)
19:16 38.7481 -90.3222 121° Southeast 128 147 600 -360 Descending FAA TRACON SMA TRACON (SMA)